Regional Weather Roundup
Issued by NWS Mt. Holly, NJ

Home | Current Version | Previous Version | Text Only | Print | Product List | Glossary On
Versions: 1 2 3 4 5 6 7 8 9 10 11 12 13 14 15 16 17 18 19 20 21 22 23 24 25 26 27 28 29 30 31 32 33 34 35 36 37 38 39 40 41 42 43 44 45 46 47 48 49 50
000
ASUS41 KPHI 232313
RWRPHI

REGIONAL WEATHER ROUNDUP
NATIONAL WEATHER SERVICE MOUNT HOLLY NJ
700 PM EDT MON APR 23 2018

NOTE:  "FAIR" INDICATES FEW OR NO CLOUDS BELOW 12,000 FEET WITH NO
SIGNIFICANT WEATHER AND/OR OBSTRUCTIONS TO VISIBILITY.

 * = STATION DOES NOT REPORT PRECIPITATION (E.G. RAIN, SNOW, ETC.)
        OR FOG.

NJZ015>026-240000-
SOUTHERN NEW JERSEY

CITY           SKY/WX    TMP DP  RH WIND       PRES   REMARKS
POMONA         FAIR      58  30  34 S8        30.42F
WILDWOOD*      FAIR      54  38  54 S14       30.42S
MILLVILLE      FAIR      58  28  32 S5        30.40F
MOUNT HOLLY    FAIR      63  28  26 S6        30.38S
TRENTON        FAIR      64  34  32 SE15      30.37S

$$
NJZ001>014-240000-
NORTHERN NEW JERSEY

CITY           SKY/WX    TMP DP  RH WIND       PRES   REMARKS
SUSSEX         FAIR      63  29  27 SE8       30.36F
ANDOVER*         N/A     62  27  26 S7        30.37S
MORRISTOWN     PTCLDY    57  30  35 SE14      30.42R
NEWARK         FAIR      56  36  47 E5        30.42F
TETERBORO      FAIR      57  33  40 SE10      30.41S
CALDWELL       FAIR      56  33  42 VRB7      30.41S
SOMERVILLE     FAIR      60  34  37 VRB6      30.38R
ALLAIRE*       FAIR      54  38  54 SE7       30.44S
TOMS RIVER*    FAIR      58  30  34 S9        30.43R

$$
PAZ043-044-047-054-055-060>062-066>071-240000-
EASTERN PENNSYLVANIA

CITY           SKY/WX    TMP DP  RH WIND       PRES   REMARKS
PHILADELPHIA   MOCLDY    63  26  24 S9G20     30.38F
NORTH PHILA    FAIR      66  25  21 SW10      30.39S
BLUE BELL*     FAIR      61  28  29 S7        30.38F
DOYLESTOWN     FAIR      64  29  26 S8        30.36S
QUAKERTOWN*    CLEAR     64  32  29 S7        30.35F
PERKASIE*      FAIR      63  28  27 S7        30.37S
POTTSTOWN      FAIR      64  28  25 S6        30.37F
LANCASTER      FAIR      62  32  32 SE9       30.35R
COATESVILLE    FAIR      61  28  29 SE9       30.38S
READING        FAIR      65  28  24 S10       30.33F
ALLENTOWN      FAIR      67  24  19 S9        30.35S
MOUNT POCONO   FAIR      58  21  24 S8        30.36S
HAZLETON       FAIR      63  30  29 SE6       30.37S
LEHIGHTON      FAIR      66  27  22 SE6       30.35S
WILKES BARRE   FAIR      66  24  20 VRB6      30.32S

$$
DEZALL-MDZ008-012-015-019-020-240000-
DELAWARE AND EASTERN MARYLAND

CITY           SKY/WX    TMP DP  RH WIND       PRES   REMARKS
WILMINGTON     FAIR      59  30  33 S16       30.39F
GEORGETOWN     FAIR      59  21  23 S10       30.42R
EASTON         MOCLDY    64  23  20 S13G18    30.43R
PATUXENT       MOCLDY    59  41  51 SE10      30.39
OCEAN CITY     FAIR      52  44  74 S3        30.42S
WALLOPS ISLAND FAIR      56  40  55 SE15      30.42R
CAMBRIDGE      CLEAR     61  28  29 SE8G15    30.40S
SALISBURY      FAIR      58  27  30 SE7       30.41S

$$
PAZ001-021-NYZ056-072-MDZ011-DCZ001-240000-
OTHER NEARBY LOCATIONS

CITY           SKY/WX    TMP DP  RH WIND       PRES   REMARKS
HARRISBURG     MOCLDY    61  40  45 SE10      30.33R
STATE COLLEGE  MOSUNNY   64  36  34 S12       30.29R
WILLIAMSPORT   FAIR      66  32  28 SE10G20   30.29S
BINGHAMTON     FAIR      64  16  15 S10       30.29F
NEW YORK CITY  FAIR      55  35  47 VRB7      30.45S
BALTIMORE      MOCLDY    63  43  48 S9G21     30.36S
WASHINGTON DC  MOCLDY    63  39  41 SE15      30.37R

$$



USA.gov is the U.S. government's official web portal to all federal, state and local government web resources and services.